Umbra-10

operational
NORAD ID: 60547 Int'l Des: 2024-149 Owner: UMBRA Country: US
LEOCIRCULARRETROGRADESSO

About Umbra-10

Description loading...

Live Position

Loading 3D Globe...

Upcoming Passes

Altitude History

Altitude vs Time

uPlot chart will show altitude changes over time

Two-Line Element Set

1 60547U 24149CH 26102.70022932 .00010207 00000-0 53292-3 0 9992
2 60547 97.6966 188.9164 0001861 153.4204 206.7124 15.16118208 90801
Epoch: Apr 12, 2026 • Age: 15 hours

Current Status

Altitude 530.5 km
Velocity 7.60 km/s
Sub-Earth Point 82.10°N, 160.61°E
Launch Date Aug 16, 2024
Age 1.6 years
Type other

Technical Details

Classification Payload
Mass 84.00 kg
Dry Mass 79.00 kg
Total Mass 84.00 kg
Length 0.80 m
Diameter 0.60 m
Span 4.00 m
Shape Box + 2 Pan + Dish
Manufacturer UMBRA
Bus Type Espasat
Phase Status In Orbit
Owner/State UMBRA/US

Large Constellations

Loading constellations...